Location: Newark
(45.2500°N, 7.5833°E)
Time: 06:11:11
(UTC+00:00)

SR - Visible Passes

Search period start: 26 January 2020 00:00
Search period end: 05 February 2020 00:00
Orbit: 574 x 882 km, 66.7° (Epoch: 25 January)

Date Brightness Start Highest point End Pass type
(mag) Time Alt. Az. Time Alt. Az. Time Alt. Az.
26 Jan ? 03:38:19 11° N 03:39:37 12° NNE 03:41:41 10° NE visible
26 Jan ? 05:18:17 10° NNW 05:23:30 37° NE 05:28:20 10° ESE visible
27 Jan ? 04:29:32 12° N 04:33:22 23° NE 04:37:37 10° E visible
27 Jan ? 06:10:35 10° NW 06:16:10 76° WSW 06:21:14 10° SSE visible
28 Jan ? 03:41:24 14° N 03:43:03 16° NNE 03:46:22 10° ENE visible
28 Jan ? 05:20:53 10° NNW 05:26:26 60° NE 05:31:30 10° SE visible
29 Jan ? 02:53:20 11° NNE 02:53:20 11° NNE 02:54:25 10° NE visible
29 Jan ? 04:32:45 17° NNW 04:36:30 35° NE 04:41:15 10° ESE visible
29 Jan ? 06:13:33 10° NW 06:18:43 42° WSW 06:23:26 10° S visible
30 Jan ? 03:44:45 20° NNE 03:46:22 22° NE 03:50:29 10° E visible
30 Jan ? 05:24:11 13° NW 05:29:12 81° WSW 05:34:15 10° SSE visible
31 Jan ? 02:56:51 15° NE 02:56:51 15° NE 02:59:10 10° ENE visible
31 Jan ? 04:36:17 24° NNW 04:39:27 57° NE 04:44:28 10° SE visible
31 Jan ? 06:16:54 10° NW 06:21:04 23° WSW 06:25:00 10° SSW visible
01 Feb ? 03:48:31 31° NNE 03:49:30 33° NE 03:54:10 10° ESE visible
01 Feb ? 05:27:57 17° NW 05:31:45 45° WSW 05:36:30 10° S visible
01 Feb ? 19:56:42 10° SSW 19:56:49 11° SSW 19:56:49 11° SSW visible
02 Feb ? 03:00:51 19° ENE 03:00:51 19° ENE 03:03:21 10° E visible
02 Feb ? 04:40:18 41° NW 04:42:13 85° WSW 04:47:15 10° SSE visible
02 Feb ? 19:07:27 10° S 19:09:54 25° S 19:09:54 25° S visible
03 Feb ? 03:52:47 53° ENE 03:52:47 53° ENE 03:57:26 10° SE visible
03 Feb ? 05:32:16 20° WNW 05:34:08 24° WSW 05:38:08 10° SSW visible
03 Feb ? 18:18:55 10° SSE 18:22:57 25° ESE 18:22:57 25° ESE visible
03 Feb ? 19:59:31 10° SW 20:02:27 30° WSW 20:02:27 30° WSW visible
04 Feb ? 03:05:26 19° E 03:05:26 19° E 03:07:05 10° ESE visible
04 Feb ? 04:44:54 47° WSW 04:44:54 47° WSW 04:49:33 10° S visible
04 Feb ? 17:31:41 10° SE 17:34:26 14° ESE 17:35:56 12° E visible
04 Feb ? 19:09:45 10° SSW 19:15:25 77° SSE 19:15:25 77° SSE visible
04 Feb ? 20:53:33 10° W 20:54:55 15° W 20:54:55 15° W visible
